sat.trackr.live / text

‹ back to catalog

STARLINK-4566

NORAD 53693 · 2022-105AX

PAYLOAD ACTIVE UNKNOWN

§ Identity

Operator
Country
US
Launch date
2022-08-31
Launch site
AFWTR
Launch vehicle
Mass (kg)
RCS (m²)

Purposes: comms

External: N2YO · Heavens-Above · Gunter

§ Orbital elements

Epoch: 2026-09-20T05:40:09.282720Z

Period
93.90 min
Inclination
97.2857°
Eccentricity
0.0002071
Mean motion
15.33494058 rev/d
Perigee alt
464.0 km
Apogee alt
466.8 km
Semi-major
6,843.5 km
B*
-4.6918e-4
RAAN
139.9722°
Arg perigee
57.8158°
Mean anomaly
302.3286°
Rev number
22,270

§ Raw data

STARLINK-45661 53693U 22105AX  26263.23621855 -.00015216  00000+0 -46918-3 0  99942 53693  97.2857 139.9722 0002071  57.8158 302.3286 15.33494058222702

JSON: /api/v1/satellites/53693 · /tle

For live sub-satellite position, see the globe view (requires WebGL).

§ Visibility from observer

Set your observer location to see the next 7 days of passes ≥ 10°. The values pass through the URL so the page stays shareable.

No JS? Fill the form by hand. The geolocation button needs JavaScript.